Madison, MN

7:42 PM CDT on August 21, 2017 (GMT -0500)
Madison-Lac Qui Parle County

Weather History for KDXX - July, 2013

Change the Weather History Date:

Saturday, July 6, 2013

  Actual Average (KAQP) Record (KAQP)
Temperature  
Mean Temperature 75 °F -  
Max Temperature 82 °F 79 °F 93 °F (2002)
Min Temperature 68 °F 58 °F 48 °F (1997)
Cooling Degree Days 10    
Growing Degree Days 25 (Base 50)    
Moisture  
Dew Point 66 °F    
Average Humidity 75    
Maximum Humidity 94    
Minimum Humidity 58    
Precipitation  
Precipitation 0.32 in - - ()
Sea Level Pressure  
Sea Level Pressure 29.79 in    
Wind  
Wind Speed 7 mph (SE)    
Max Wind Speed 21 mph    
Max Gust Speed 33 mph    
Visibility 9 miles    
Events Rain    
Averages and records for this station are not official NWS values.
T = Trace of Precipitation, MM = Missing Value Source: NWS Daily Summary

Daily Weather History Graph

Daily Weather History Graph

Search for Another Location

Airport or City:

Trip Planner

Search our weather history database for the weather conditions in past years. The results will help you decide how hot, cold, wet, or windy it might be!

Date:

Astronomy

Jul. 06, 2013 Rise Set
Actual Time 5:45 AM CDT 9:13 PM CDT
Civil Twilight 5:08 AM CDT 9:50 PM CDT
Nautical Twilight 4:20 AM CDT 10:38 PM CDT
Astronomical Twilight 3:17 AM CDT 11:40 PM CDT
Moon 4:34 AM CDT (7/6) 7:53 PM CDT (7/6)
Length of Visible Light 16h 41m
Length of Day
15h 28m
Waning Crescent, 2% of the Moon is Illuminated
Jul 6
Waning Crescent
Jul 8
New
Jul 15
First Quarter
Jul 22
Full
Jul 29
Last Quarter

Hourly Weather History & Observations

Time (CDT) Temp. Heat Index Dew Point Humidity Pressure Visibility Wind Dir Wind Speed Gust Speed Precip Events Conditions
12:13 AM 73.4 °F - 62.6 °F 69% 29.80 in 10.0 mi SSE 4.6 mph - N/A   Clear
12:34 AM 73.4 °F - 62.6 °F 69% 29.80 in 10.0 mi South 4.6 mph - N/A   Clear
12:54 AM 73.4 °F - 62.6 °F 69% 29.80 in 10.0 mi South 6.9 mph - N/A   Clear
1:13 AM 73.4 °F - 62.6 °F 69% 29.80 in 10.0 mi South 5.8 mph - N/A   Clear
1:34 AM 73.4 °F - 62.6 °F 69% 29.80 in 10.0 mi South 6.9 mph - N/A   Clear
1:54 AM 73.4 °F - 62.6 °F 69% 29.80 in 10.0 mi South 6.9 mph - N/A   Clear
2:13 AM 73.4 °F - 62.6 °F 69% 29.80 in 10.0 mi South 6.9 mph - N/A   Clear
2:34 AM 73.4 °F - 62.6 °F 69% 29.80 in 10.0 mi South 5.8 mph - N/A   Clear
2:54 AM 71.6 °F - 62.6 °F 73% 29.79 in 10.0 mi SSE 5.8 mph - N/A   Clear
3:13 AM 71.6 °F - 62.6 °F 73% 29.79 in 10.0 mi SSE 4.6 mph - N/A   Clear
3:34 AM 71.6 °F - 64.4 °F 78% 29.79 in 5.0 mi South 17.3 mph - 0.09 in Rain Heavy Rain
3:54 AM 69.8 °F - 64.4 °F 83% 29.79 in 4.0 mi SSE 20.7 mph 33.4 mph 0.30 in Rain Heavy Rain
4:13 AM 68.0 °F - 66.2 °F 94% 29.79 in 10.0 mi SE 11.5 mph - 0.01 in   Overcast
4:34 AM 68.0 °F - 66.2 °F 94% 29.79 in 10.0 mi SE 8.1 mph - 0.01 in   Mostly Cloudy
4:54 AM 69.8 °F - 64.4 °F 83% 29.79 in 10.0 mi SSE 6.9 mph - 0.01 in   Scattered Clouds
5:12 AM 69.8 °F - 64.4 °F 83% 29.79 in 10.0 mi SE 8.1 mph - N/A   Scattered Clouds
5:34 AM 69.8 °F - 64.4 °F 83% 29.80 in 10.0 mi SE 8.1 mph - N/A   Scattered Clouds
5:54 AM 69.8 °F - 64.4 °F 83% 29.80 in 10.0 mi SE 6.9 mph - N/A   Clear
6:13 AM 69.8 °F - 64.4 °F 83% 29.81 in 10.0 mi ESE 4.6 mph - N/A   Clear
6:34 AM 69.8 °F - 64.4 °F 83% 29.82 in 10.0 mi East 4.6 mph - N/A   Clear
6:54 AM 69.8 °F - 64.4 °F 83% 29.82 in 7.0 mi East 5.8 mph - N/A   Clear
7:13 AM 69.8 °F - 64.4 °F 83% 29.81 in 7.0 mi ESE 6.9 mph - N/A   Scattered Clouds
7:34 AM 69.8 °F - 64.4 °F 83% 29.81 in 10.0 mi ESE 8.1 mph - N/A   Clear
7:54 AM 71.6 °F - 64.4 °F 78% 29.81 in 10.0 mi ESE 8.1 mph - N/A   Clear
8:13 AM 71.6 °F - 64.4 °F 78% 29.81 in 10.0 mi ESE 8.1 mph - N/A   Clear
8:34 AM 71.6 °F - 64.4 °F 78% 29.80 in 10.0 mi ESE 10.4 mph - N/A   Clear
8:54 AM 71.6 °F - 62.6 °F 73% 29.80 in 10.0 mi ESE 11.5 mph - N/A   Clear
9:13 AM 73.4 °F - 64.4 °F 73% 29.80 in 10.0 mi ESE 10.4 mph - N/A   Clear
9:34 AM 73.4 °F - 64.4 °F 73% 29.79 in 10.0 mi ESE 13.8 mph - N/A   Clear
9:54 AM 73.4 °F - 64.4 °F 73% 29.79 in 10.0 mi SE 10.4 mph - N/A   Clear
10:13 AM 75.2 °F - 64.4 °F 69% 29.79 in 10.0 mi SE 9.2 mph - N/A   Clear
10:34 AM 75.2 °F - 64.4 °F 69% 29.77 in 10.0 mi SE 13.8 mph - N/A   Clear
10:54 AM 75.2 °F - 64.4 °F 69% 29.78 in 10.0 mi SSE 9.2 mph - N/A   Clear
11:13 AM 75.2 °F - 64.4 °F 69% 29.77 in 10.0 mi SE 9.2 mph - N/A   Clear
11:34 AM 75.2 °F - 64.4 °F 69% 29.78 in 10.0 mi SE 5.8 mph - N/A   Clear
11:54 AM 75.2 °F - 64.4 °F 69% 29.79 in 10.0 mi SSE 4.6 mph - N/A   Clear
12:13 PM 75.2 °F - 64.4 °F 69% 29.79 in 10.0 mi SE 4.6 mph - N/A   Clear
12:34 PM 77.0 °F - 64.4 °F 65% 29.79 in 10.0 mi SE 5.8 mph - N/A   Clear
12:54 PM 77.0 °F - 66.2 °F 69% 29.79 in 10.0 mi ESE 3.5 mph - N/A   Clear
1:13 PM 78.8 °F - 66.2 °F 65% 29.79 in 10.0 mi ESE 5.8 mph - N/A   Clear
1:34 PM 78.8 °F - 66.2 °F 65% 29.79 in 10.0 mi ESE 5.8 mph - N/A   Clear
1:54 PM 80.6 °F 82.7 °F 66.2 °F 61% 29.79 in 10.0 mi ESE 6.9 mph - N/A   Clear
2:13 PM 80.6 °F 82.3 °F 64.4 °F 58% 29.78 in 10.0 mi SE 5.8 mph - N/A   Clear
2:34 PM 80.6 °F 82.7 °F 66.2 °F 61% 29.78 in 10.0 mi SE 5.8 mph - N/A   Clear
2:53 PM 80.6 °F 82.7 °F 66.2 °F 61% 29.79 in 10.0 mi SE 10.4 mph - N/A   Clear
3:14 PM 80.6 °F 82.7 °F 66.2 °F 61% 29.79 in 10.0 mi SE 6.9 mph - N/A   Clear
3:34 PM 80.6 °F 82.7 °F 66.2 °F 61% 29.79 in 10.0 mi SSE 5.8 mph - N/A   Clear
3:53 PM 80.6 °F 83.2 °F 68.0 °F 65% 29.79 in 10.0 mi SSE 5.8 mph - N/A   Clear
4:14 PM 80.6 °F 83.2 °F 68.0 °F 65% 29.79 in 10.0 mi SSE 4.6 mph - N/A   Clear
4:34 PM 82.4 °F 84.6 °F 66.2 °F 58% 29.79 in 10.0 mi SE 4.6 mph - N/A   Clear
4:53 PM 82.4 °F 84.6 °F 66.2 °F 58% 29.79 in 10.0 mi SE 4.6 mph - N/A   Clear
5:14 PM 82.4 °F 84.6 °F 66.2 °F 58% 29.79 in 10.0 mi SE 3.5 mph - N/A   Clear
5:33 PM 82.4 °F 84.6 °F 66.2 °F 58% 29.78 in 10.0 mi ESE 6.9 mph - N/A   Clear
5:54 PM 80.6 °F 83.2 °F 68.0 °F 65% 29.77 in 10.0 mi SE 5.8 mph - N/A   Clear
6:14 PM 78.8 °F - 69.8 °F 74% 29.77 in 10.0 mi SE 6.9 mph - N/A   Light Drizzle
6:33 PM 78.8 °F - 71.6 °F 78% 29.76 in 7.0 mi East 6.9 mph - 0.01 in Rain Light Rain
6:54 PM 78.8 °F - 71.6 °F 78% 29.77 in 10.0 mi East 5.8 mph - 0.01 in   Clear
7:14 PM 78.8 °F - 71.6 °F 78% 29.76 in 10.0 mi SE 8.1 mph - N/A   Clear
7:33 PM 78.8 °F - 71.6 °F 78% 29.77 in 10.0 mi SE 6.9 mph - N/A   Clear
7:54 PM 77.0 °F - 71.6 °F 83% 29.76 in 7.0 mi SE 5.8 mph - N/A Rain Light Rain
8:14 PM 77.0 °F - 71.6 °F 83% 29.77 in 10.0 mi SE 3.5 mph - N/A   Clear
8:33 PM 77.0 °F - 71.6 °F 83% 29.78 in 7.0 mi Calm Calm - N/A   Scattered Clouds
8:54 PM 77.0 °F - 71.6 °F 83% 29.78 in 7.0 mi Calm Calm - N/A   Scattered Clouds
9:14 PM 75.2 °F - 71.6 °F 89% 29.79 in 7.0 mi Calm Calm - N/A   Clear
9:33 PM 75.2 °F - 71.6 °F 89% 29.79 in 5.0 mi ENE 3.5 mph - N/A   Clear
9:54 PM 73.4 °F - 71.6 °F 94% 29.79 in 5.0 mi East 3.5 mph - N/A   Clear
10:14 PM 73.4 °F - 69.8 °F 88% 29.80 in 5.0 mi East 3.5 mph - N/A   Clear
10:33 PM 73.4 °F - 69.8 °F 88% 29.80 in 3.0 mi ENE 4.6 mph - N/A   Clear
10:54 PM 71.6 °F - 69.8 °F 94% 29.80 in 3.0 mi ENE 3.5 mph - N/A   Clear
11:13 PM 71.6 °F - 69.8 °F 94% 29.80 in 2.5 mi ENE 3.5 mph - N/A   Clear
11:34 PM 71.6 °F - 69.8 °F 94% 29.80 in 3.0 mi Calm Calm - N/A   Clear
11:54 PM 71.6 °F - 69.8 °F 94% 29.80 in 2.0 mi Calm Calm - N/A   Clear